Terug naar catalogus

ATLAS 5 CENTAUR DEB

ActiefHEO
NORAD 53516·DEBRIS·🇺🇸 United States

Gelanceerd Sep 17, 2014 vanaf Cape Canaveral Space Force Station

Loading…

Volgende Passages (komende 24 uur)

TLE

VerouderendSource: Space-Track

Epoch: Aug 30, 2026, 22:39 UTC

1 53516U 14055DP  26242.94408669 -.00000045  00000-0  00000-0 0  9997
2 53516  19.8202 148.9854 4737334 153.5563 241.3496  1.82544296 27449

Volg ATLAS 5 CENTAUR DEB in realtime met AllMySat

Download on the App Store